| time (UTC) | temp C | wind direction | speed KPH | gust KPH | rain 1hr cm | rain 24hr cm | rain mn cm | humidity % | barometer mb |
| 20260504044605 | 12 | 335 | 0.0 | 0.0 | 0.00 | 0.00 | 0.00 | 84 | 1018.6 |
| 20260504043059 | 12 | 335 | 0.0 | 0.0 | 0.00 | 0.00 | 0.00 | 85 | 1018.8 |
| 20260504041558 | 12 | 335 | 0.0 | 0.0 | 0.00 | 0.00 | 0.00 | 84 | 1018.7 |
| 20260504040107 | 13 | 335 | 0.0 | 0.0 | 0.00 | 0.00 | 0.00 | 84 | 1018.6 |
| 20260504034627 | 13 | 335 | 0.0 | 0.0 | 0.00 | 0.00 | 0.00 | 84 | 1018.6 |
| 20260504033057 | 13 | 335 | 0.0 | 0.0 | 0.00 | 0.00 | 0.00 | 82 | 1018.7 |
| 20260504031556 | 13 | 335 | 0.0 | 0.0 | 0.00 | 0.00 | 0.00 | 81 | 1018.7 |
| 20260504030120 | 13 | 335 | 0.0 | 0.0 | 0.00 | 0.00 | 0.00 | 82 | 1018.9 |
| 20260504024559 | 13 | 335 | 0.0 | 0.0 | 0.00 | 0.00 | 0.00 | 82 | 1018.7 |
| 20260504023054 | 14 | 335 | 0.0 | 0.0 | 0.00 | 0.00 | 0.00 | 81 | 1018.6 |
| 20260504021554 | 15 | 335 | 0.0 | 0.0 | 0.00 | 0.00 | 0.00 | 80 | 1018.4 |
| 20260504020100 | 15 | 335 | 0.0 | 0.0 | 0.00 | 0.00 | 0.00 | 77 | 1018.2 |
| 20260504014555 | 16 | 335 | 0.0 | 0.0 | 0.00 | 0.00 | 0.00 | 73 | 1018.1 |
| 20260504013054 | 16 | 335 | 0.0 | 0.0 | 0.00 | 0.00 | 0.00 | 69 | 1017.9 |
| 20260504011550 | 17 | 335 | 0.0 | 0.0 | 0.00 | 0.00 | 0.00 | 63 | 1017.8 |
| 20260504010050 | 18 | 335 | 0.0 | 0.0 | 0.00 | 0.00 | 0.00 | 60 | 1017.7 |
| 20260504004549 | 20 | 335 | 0.0 | 0.0 | 0.00 | 0.00 | 0.00 | 53 | 1017.5 |
| 20260504003047 | 21 | 335 | 0.0 | 0.0 | 0.00 | 0.00 | 0.00 | 48 | 1017.2 |
| 20260504001600 | 22 | 335 | 0.0 | 1.6 | 0.00 | 0.00 | 0.00 | 43 | 1017.3 |
| 20260504000050 | 23 | 335 | 0.0 | 1.6 | 0.00 | 0.00 | 0.00 | 40 | 1017.2 |
| 20260503234546 | 23 | 332 | 0.0 | 1.6 | 0.00 | 0.00 | 0.00 | 39 | 1017.2 |
| 20260503233044 | 24 | 335 | 0.0 | 3.2 | 0.00 | 0.00 | 0.00 | 37 | 1017.1 |
| 20260503231551 | 24 | 283 | 0.0 | 6.4 | 0.00 | 0.00 | 0.00 | 38 | 1017.2 |
| 20260503230045 | 24 | 326 | 0.0 | 6.4 | 0.00 | 0.00 | 0.00 | 38 | 1017.3 |
| 20260503224544 | 23 | 316 | 1.6 | 6.4 | 0.00 | 0.00 | 0.00 | 38 | 1017.3 |
| 20260503223043 | 24 | 347 | 0.0 | 3.2 | 0.00 | 0.00 | 0.00 | 39 | 1017.1 |
| 20260503221545 | 24 | 307 | 1.6 | 6.4 | 0.00 | 0.00 | 0.00 | 38 | 1017.2 |
| 20260503220041 | 24 | 42 | 0.0 | 4.8 | 0.00 | 0.00 | 0.00 | 35 | 1017.3 |
| 20260503214540 | 23 | 291 | 1.6 | 12.9 | 0.00 | 0.00 | 0.00 | 35 | 1017.3 |
| 20260503213043 | 24 | 51 | 6.4 | 16.1 | 0.00 | 0.00 | 0.00 | 32 | 1017.5 |
| 20260503211537 | 24 | 328 | 0.0 | 6.4 | 0.00 | 0.00 | 0.00 | 35 | 1017.8 |
| 20260503210034 | 24 | 347 | 0.0 | 14.5 | 0.00 | 0.00 | 0.00 | 34 | 1018.0 |
| 20260503204534 | 24 | 330 | 3.2 | 9.7 | 0.00 | 0.00 | 0.00 | 35 | 1018.2 |
| 20260503203032 | 23 | 6 | 0.0 | 14.5 | 0.00 | 0.00 | 0.00 | 36 | 1018.2 |
| 20260503201532 | 24 | 347 | 4.8 | 19.3 | 0.00 | 0.00 | 0.00 | 35 | 1018.3 |
| 20260503200032 | 24 | 13 | 0.0 | 11.3 | 0.00 | 0.00 | 0.00 | 35 | 1018.6 |
| 20260503194529 | 24 | 340 | 3.2 | 16.1 | 0.00 | 0.00 | 0.00 | 35 | 1018.9 |
| 20260503193027 | 23 | 99 | 4.8 | 11.3 | 0.00 | 0.00 | 0.00 | 32 | 1019.2 |
| 20260503191526 | 23 | 299 | 0.0 | 4.8 | 0.00 | 0.00 | 0.00 | 36 | 1019.4 |
| 20260503190041 | 23 | 335 | 6.4 | 33.8 | 0.00 | 0.00 | 0.00 | 34 | 1019.8 |
| 20260503184524 | 23 | 35 | 3.2 | 8.0 | 0.00 | 0.00 | 0.00 | 36 | 1019.9 |
| 20260503183023 | 23 | 334 | 4.8 | 22.5 | 0.00 | 0.00 | 0.00 | 32 | 1020.1 |
| 20260503181522 | 23 | 330 | 3.2 | 9.7 | 0.00 | 0.00 | 0.00 | 36 | 1020.1 |
| 20260503180034 | 23 | 324 | 1.6 | 9.7 | 0.00 | 0.00 | 0.00 | 38 | 1020.1 |
| 20260503174519 | 23 | 25 | 6.4 | 16.1 | 0.00 | 0.00 | 0.00 | 34 | 1020.3 |
| 20260503173017 | 23 | 3 | 4.8 | 11.3 | 0.00 | 0.00 | 0.00 | 35 | 1020.5 |
| 20260503171528 | 22 | 349 | 3.2 | 11.3 | 0.00 | 0.00 | 0.00 | 37 | 1020.6 |
| 20260503150110 | 20 | 326 | 0.0 | 4.8 | 0.00 | 0.00 | 0.00 | 57 | 1022.0 |
| 20260503100107 | 8 | 325 | 0.0 | 0.0 | 0.00 | 0.28 | 0.00 | 92 | 1019.5 |
| 20260503081550 | 8 | 325 | 0.0 | 0.0 | 0.00 | 0.89 | 0.00 | 91 | 1019.1 |